Weather History for Ohio State University, OH

Change the Weather History Date:

Monday, July 8, 2013

  Actual Average Record
Temperature  
Mean Temperature 72 °F -  
Max Temperature 82 °F 81 °F 93 °F (2010)
Min Temperature 64 °F 60 °F 53 °F (2000)
Cooling Degree Days 8    
Growing Degree Days 22 (Base 50)    
Moisture  
Dew Point 69 °F    
Average Humidity 89    
Maximum Humidity 100    
Minimum Humidity 74    
Precipitation  
Precipitation 0.55 in - - ()
Sea Level Pressure  
Sea Level Pressure 30.10 in    
Wind  
Wind Speed 6 mph (South)    
Max Wind Speed 12 mph    
Max Gust Speed -    
Visibility 7 miles    
Events Rain , Thunderstorm    
Averages and records for this station are not official NWS values.
T = Trace of Precipitation, MM = Missing Value Source: NWS Daily Summary

Daily Weather History Graph

Daily Weather History Graph

Search for Another Location

Airport:

Trip Planner

Search our weather history database for the weather conditions in past years. The results will help you decide how hot, cold, wet, or windy it might be!

Date:

Astronomy

Jul. 08, 2013 Rise Set
Actual Time 6:11 AM EDT 9:03 PM EDT
Civil Twilight 5:38 AM EDT 9:35 PM EDT
Nautical Twilight 4:57 AM EDT 10:16 PM EDT
Astronomical Twilight 4:10 AM EDT 11:03 PM EDT
Moon 6:39 AM EDT (7/8) 9:05 PM EDT (7/8)
Length of Visible Light 15h 57m
Length of Day
14h 52m
New Moon, 0% of the Moon is Illuminated
Jul 8
New Moon
Jul 15
First Quarter
Jul 22
Full
Jul 29
Last Quarter
Aug 6
New

Hourly Weather History & Observations

Time (EDT) Temp. Heat Index Dew Point Humidity Pressure Visibility Wind Dir Wind Speed Gust Speed Precip Events Conditions
12:53 AM 66.0 °F - 63.0 °F 90% 30.09 in 10.0 mi South 4.6 mph - N/A   Mostly Cloudy
1:53 AM 66.9 °F - 63.0 °F 87% 30.09 in 10.0 mi Calm Calm - N/A   Overcast
2:53 AM 66.0 °F - 64.0 °F 93% 30.11 in 9.0 mi NNE 11.5 mph - 0.01 in Rain , Thunderstorm Light Rain
3:32 AM 64.4 °F - 62.6 °F 94% 30.12 in 10.0 mi NNE 6.9 mph - 0.00 in Thunderstorm Thunderstorm
3:41 AM 64.4 °F - 64.4 °F 100% 30.11 in 10.0 mi ESE 5.8 mph - 0.00 in Rain , Thunderstorm Light Thunderstorms and Rain
3:53 AM 64.9 °F - 64.0 °F 97% 30.09 in 10.0 mi South 5.8 mph - 0.00 in Thunderstorm Overcast
4:18 AM 66.2 °F - 64.4 °F 94% 30.11 in 10.0 mi East 4.6 mph - 0.01 in Rain Light Rain
4:53 AM 64.9 °F - 64.0 °F 97% 30.09 in 10.0 mi SE 3.5 mph - 0.01 in   Mostly Cloudy
5:53 AM 64.9 °F - 64.0 °F 97% 30.10 in 10.0 mi SSW 6.9 mph - N/A   Clear
6:53 AM 66.0 °F - 64.9 °F 96% 30.11 in 8.0 mi SSW 5.8 mph - 0.01 in Rain Light Rain
7:19 AM 66.2 °F - 64.4 °F 94% 30.13 in 5.0 mi SW 3.5 mph - 0.03 in Rain , Thunderstorm Light Thunderstorms and Rain
7:53 AM 66.9 °F - 64.9 °F 93% 30.12 in 4.0 mi SW 9.2 mph - 0.11 in Rain , Thunderstorm Light Thunderstorms and Rain
8:40 AM 66.2 °F - 66.2 °F 100% 30.14 in 3.0 mi SSW 8.1 mph - 0.04 in Rain Rain
8:53 AM 68.0 °F - 66.0 °F 93% 30.12 in 8.0 mi SSW 8.1 mph - 0.04 in   Mostly Cloudy
9:53 AM 70.0 °F - 68.0 °F 93% 30.14 in 9.0 mi East 5.8 mph - N/A   Mostly Cloudy
10:53 AM 75.0 °F - 70.0 °F 84% 30.13 in 10.0 mi SSW 5.8 mph - N/A   Mostly Cloudy
11:53 AM 77.0 °F - 70.0 °F 79% 30.13 in 9.0 mi SSW 5.8 mph - 0.00 in Rain Light Rain
12:53 PM 75.0 °F - 72.0 °F 90% 30.14 in 3.0 mi Calm Calm - 0.06 in Rain Rain
1:03 PM 75.2 °F - 71.6 °F 89% 30.14 in 1.5 mi SE 4.6 mph - 0.10 in Rain Rain
1:11 PM 75.2 °F - 71.6 °F 89% 30.12 in 5.0 mi South 9.2 mph - 0.13 in Rain Light Rain
1:14 PM 75.2 °F - 71.6 °F 89% 30.12 in 5.0 mi South 9.2 mph - 0.13 in Rain Light Rain
1:53 PM 78.1 °F - 73.0 °F 84% 30.12 in 7.0 mi South 6.9 mph - 0.14 in   Mostly Cloudy
2:51 PM 80.6 °F 85.4 °F 73.4 °F 79% 30.11 in 7.0 mi SSW 9.2 mph - N/A   Mostly Cloudy
2:53 PM 80.1 °F 83.8 °F 72.0 °F 76% 30.09 in 7.0 mi SSW 10.4 mph - N/A   Mostly Cloudy
3:53 PM 81.0 °F 85.2 °F 72.0 °F 74% 30.08 in 8.0 mi SSW 8.1 mph - N/A   Overcast
4:53 PM 81.0 °F 85.8 °F 73.0 °F 77% 30.06 in 9.0 mi South 9.2 mph - N/A   Mostly Cloudy
5:00 PM 80.6 °F 84.6 °F 71.6 °F 74% 30.08 in 9.0 mi SSW 9.2 mph - N/A   Scattered Clouds
5:53 PM 80.1 °F 83.8 °F 72.0 °F 76% 30.04 in 8.0 mi South 5.8 mph - N/A   Clear
6:53 PM 80.1 °F 84.5 °F 73.9 °F 81% 30.04 in 7.0 mi South 5.8 mph - 0.00 in Rain Light Rain
7:53 PM 79.0 °F - 75.0 °F 88% 30.06 in 6.0 mi South 3.5 mph - 0.00 in Rain Light Rain
8:53 PM 78.1 °F - 75.0 °F 90% 30.06 in 4.0 mi Calm Calm - 0.00 in Rain Light Rain
9:53 PM 75.9 °F - 71.1 °F 85% 30.07 in 8.0 mi WSW 4.6 mph - 0.00 in   Mostly Cloudy
10:50 PM 73.4 °F - 69.8 °F 88% 30.11 in 1.8 mi WNW 5.8 mph - 0.08 in Rain Heavy Rain
10:53 PM 73.0 °F - 70.0 °F 90% 30.09 in 1.5 mi NNW 3.5 mph - 0.11 in Rain Heavy Rain
11:03 PM 71.6 °F - 69.8 °F 94% 30.10 in 3.0 mi ESE 5.8 mph - 0.03 in Rain Light Rain
11:53 PM 73.0 °F - 72.0 °F 96% 30.07 in 5.0 mi SE 5.8 mph - 0.06 in   Mostly Cloudy